Theta_e
343 344 339 338 338 334 335 333 326 324 329 321 320 330 334 331 333 332 336 338 333 313 314 317 319 320 323 327 330 325 318 316 315 314 313 314 315 321 324 324 335 334 335
343 344 339 339 338 335 335 330 323 332 334 324 315 327 330 329 335 334 339 336 321 313 317 328 323 319 322 323 320 319 318 316 313 313 312 312 312 312 312 315 319 333 335
344 345 338 339 336 335 331 326 332 330 334 329 320 327 329 330 333 338 338 332 314 315 320 321 320 320 321 322 320 320 320 317 314 315 321 323 318 317 316 313 312 312 316
344 345 342 338 333 332 330 323 332 329 339 336 323 330 331 335 337 339 335 316 314 317 320 321 321 321 322 321 321 320 319 319 317 319 329 330 320 318 318 317 317 316 314
345 345 346 337 334 332 327 329 331 327 337 340 337 334 336 341 340 336 323 314 316 319 320 320 321 322 321 321 320 319 318 318 319 321 323 331 330 324 323 320 319 318 317
344 345 341 337 335 333 325 336 336 326 330 340 340 341 341 341 337 326 314 314 319 320 321 321 321 320 320 320 319 319 318 317 319 325 325 326 330 322 322 322 320 320 319
343 343 338 337 337 332 327 336 336 316 321 340 341 341 340 339 333 318 314 316 319 320 319 320 320 320 319 318 319 319 319 318 324 323 329 331 324 321 321 321 321 321 321
342 341 340 338 337 328 331 335 337 316 313 340 341 341 340 338 331 314 314 316 319 319 320 319 319 319 319 318 318 318 318 319 321 320 322 329 321 321 322 322 322 322 321
341 341 339 338 336 329 331 337 333 316 311 330 341 340 340 333 325 314 315 316 317 319 318 318 318 318 318 318 318 318 318 319 325 322 324 329 323 323 324 323 323 323 322
339 341 341 339 336 332 338 337 330 316 311 312 335 339 336 325 317 315 316 316 316 317 317 317 317 318 318 318 317 318 319 319 321 321 322 324 324 324 325 325 324 324 324
336 339 339 339 339 337 338 335 328 321 313 315 316 329 324 321 316 316 316 316 317 317 317 318 318 317 318 317 317 318 321 320 321 322 323 324 325 327 326 324 323 322 321
332 339 339 338 338 335 337 335 333 327 320 318 321 326 330 330 329 326 317 317 318 318 318 318 318 318 317 317 318 318 323 323 323 324 325 326 327 328 326 327 325 325 324
324 327 338 338 335 331 328 335 334 332 332 329 324 319 328 324 317 316 317 318 318 318 317 317 317 317 317 318 319 320 324 324 326 325 326 327 328 328 327 326 325 324 326
324 329 339 338 334 327 324 336 337 334 332 331 321 316 316 316 316 316 317 317 317 317 317 317 318 317 318 319 322 327 327 329 329 327 329 328 328 327 327 326 325 325 325
325 324 333 338 335 331 322 326 335 336 336 333 328 321 320 317 317 317 317 317 317 317 317 317 318 320 322 327 328 330 331 331 330 330 331 328 327 327 326 327 325 326 324
323 326 330 337 337 334 324 320 324 331 335 336 334 326 324 322 321 320 320 319 320 318 318 319 325 328 329 329 331 331 331 331 331 331 330 330 327 325 325 326 327 326 325
325 325 326 333 335 335 331 326 319 322 325 331 335 336 333 332 323 325 328 326 323 321 319 318 322 325 329 331 332 332 332 332 331 330 330 329 329 327 324 324 323 324 325
325 325 326 330 332 333 332 334 328 323 325 327 328 331 333 336 332 322 326 326 328 322 323 321 326 328 329 330 332 332 331 330 330 330 330 329 329 329 329 326 325 324 324
325 326 327 328 327 329 327 328 333 333 332 331 329 328 326 325 325 325 331 332 330 326 324 324 325 328 329 331 332 331 330 329 330 329 329 329 329 325 326 326 324 324 323
325 326 327 326 328 327 327 328 329 332 332 332 332 332 332 332 332 333 334 334 333 330 326 325 326 327 330 332 330 328 328 330 329 328 326 320 316 315 316 320 321 323 324
326 326 325 324 326 326 326 327 328 327 328 328 331 328 328 331 332 333 333 334 333 333 329 325 328 330 331 329 329 329 330 328 328 323 317 314 314 314 318 319 323 325 323
326 328 328 328 328 327 326 326 326 327 328 327 329 328 328 328 329 330 331 332 334 333 332 328 330 332 329 329 330 328 328 327 326 317 318 314 313 316 316 317 322 325 322
328 327 327 329 328 327 324 326 327 329 328 328 328 328 329 328 327 327 328 329 332 333 332 331 330 330 330 328 328 328 328 325 325 323 316 314 313 316 315 315 322 324 321
326 326 327 328 328 327 329 328 328 327 328 328 328 328 329 329 329 328 328 328 330 332 332 332 331 331 329 329 328 327 326 327 324 320 319 316 314 316 316 318 319 321 320
321 320 323 327 328 328 329 330 327 328 328 328 325 323 326 329 325 327 327 329 330 331 331 330 330 329 329 328 325 323 320 314 312 318 317 317 318 315 314 315 319 318 318
318 319 319 319 324 329 329 329 329 329 329 327 328 328 326 325 325 326 326 326 325 328 328 328 329 329 326 324 323 323 319 317 314 313 316 316 317 317 316 314 317 318 316
Wind_Speed
20 24 26 23 20 18 15 12 9 10 12 15 21 23 19 15 15 15 16 12 12 13 16 17 19 20 21 21 19 19 17 17 17 17 17 16 15 14 13 14 17 14 15
23 24 26 24 21 18 15 12 11 12 11 12 20 24 21 19 18 17 16 13 12 16 19 20 19 22 21 20 18 17 16 16 17 18 18 17 16 15 13 12 13 12 11
24 24 26 24 21 18 15 14 16 13 14 13 22 23 23 20 18 19 15 14 17 19 21 21 20 21 20 19 17 16 16 16 17 16 19 15 17 16 15 13 11 10 8
24 24 24 24 21 18 16 16 18 16 15 19 21 23 22 22 21 18 17 16 19 21 21 21 21 20 18 17 15 14 14 14 14 15 12 12 14 14 13 13 12 11 10
23 23 23 23 20 18 17 19 19 18 16 20 22 25 25 22 21 19 17 20 20 21 21 20 20 18 17 15 14 13 12 12 12 12 12 11 10 11 11 12 11 11 10
21 20 23 23 20 18 19 20 19 17 19 20 23 24 24 21 20 18 20 21 21 20 19 18 18 17 15 13 12 11 11 11 12 10 9 11 9 10 10 10 11 11 10
21 20 23 23 20 18 20 21 19 16 21 21 23 22 20 21 17 19 22 22 21 20 18 17 16 14 13 12 11 10 9 9 9 8 8 8 8 9 10 10 10 10 10
20 20 21 22 20 19 21 20 18 16 22 24 23 21 21 18 18 22 23 22 21 19 17 15 14 13 11 10 9 8 8 8 8 7 7 6 7 7 8 8 9 10 10
19 19 20 22 20 20 21 19 16 15 21 27 24 23 20 17 20 23 22 22 20 18 16 14 12 11 10 9 8 7 6 6 5 5 5 4 5 6 6 7 8 9 9
17 19 20 21 20 20 21 18 15 15 19 26 28 24 20 16 23 24 22 20 18 16 14 12 10 9 8 7 6 5 5 5 5 4 4 3 4 5 7 8 8 8 9
10 22 22 22 20 20 22 18 15 14 15 19 23 22 20 20 22 21 21 19 17 15 14 12 10 9 8 7 6 5 4 4 3 3 2 1 3 4 6 7 8 7 8
14 23 24 22 20 20 20 21 17 16 15 16 18 21 16 16 16 16 19 18 16 15 13 12 11 9 8 7 6 5 4 4 3 2 2 0 1 3 4 6 9 8 6
31 23 26 24 20 20 25 22 23 18 15 15 16 18 16 17 20 19 18 17 16 15 13 12 11 10 9 8 7 6 6 5 4 3 2 0 2 3 6 6 9 9 8
31 18 21 26 22 21 24 24 23 22 19 17 18 18 18 18 19 18 17 17 16 15 14 13 11 11 10 9 8 6 5 5 4 4 3 3 4 5 7 7 8 9 10
23 30 12 29 25 24 24 27 25 22 19 17 16 16 16 16 16 16 16 15 15 15 14 14 13 12 10 9 8 7 6 6 5 5 5 6 5 6 9 11 9 10 9
29 32 8 24 26 23 22 23 26 25 22 20 18 17 14 13 14 14 15 14 14 15 15 14 11 11 10 10 8 8 7 7 6 6 6 8 11 10 12 13 12 10 11
29 21 27 13 24 21 19 18 21 23 24 23 20 16 16 14 11 12 13 13 13 14 16 16 15 14 11 10 9 8 7 7 8 8 8 8 10 13 12 13 11 11 13
28 26 25 19 15 14 14 15 17 18 19 19 19 19 19 17 14 15 13 14 14 15 16 16 14 13 11 10 9 8 7 7 8 8 11 11 11 13 15 15 12 12 13
14 29 18 21 15 17 15 11 16 14 14 13 13 13 15 16 17 16 15 14 16 17 18 17 16 13 12 11 10 8 9 8 9 10 10 13 15 20 16 17 15 13 10
14 24 23 18 11 13 17 13 16 18 16 13 13 12 13 16 18 19 18 16 16 18 19 19 17 16 13 12 10 11 11 10 10 11 12 12 12 14 14 12 11 12 10
23 20 20 17 13 13 10 15 16 17 21 21 17 15 15 18 18 24 26 19 20 20 20 20 19 17 17 14 11 10 9 11 13 13 8 11 13 11 11 10 8 10 12
24 29 27 23 19 20 13 14 17 15 19 20 24 22 25 29 27 24 22 26 27 26 21 22 22 21 18 16 12 8 11 7 8 6 13 9 10 9 11 11 11 13 12
12 17 24 26 27 27 13 19 17 16 17 14 19 21 20 25 33 31 29 29 31 32 28 25 25 25 21 20 15 10 6 6 6 10 11 11 10 9 10 11 13 14 15
17 16 20 23 24 31 30 22 22 20 22 23 28 23 31 29 24 29 30 38 37 33 31 27 28 28 23 20 15 14 15 11 7 9 9 11 11 11 13 14 14 15 16
17 17 17 26 26 25 27 28 29 25 21 20 17 19 17 23 16 31 28 18 22 21 24 34 28 27 21 19 17 14 10 12 17 14 12 9 11 12 14 15 18 18 19
8 11 11 13 16 17 19 22 20 19 20 20 22 14 8 10 9 12 19 25 26 21 19 19 20 25 19 17 17 16 13 12 14 14 14 13 13 12 15 15 19 21 21
Wind_Direction
183 176 180 185 184 181 183 187 190 178 178 181 187 187 185 176 169 164 162 146 140 128 124 119 120 116 116 117 111 109 99 92 90 88 89 93 91 94 92 86 83 79 76
169 176 180 184 185 184 185 187 174 168 163 167 175 176 175 172 165 166 158 150 139 133 126 125 118 118 116 116 109 103 96 92 91 93 92 89 87 87 85 85 87 97 96
168 172 177 182 182 183 185 182 168 163 156 147 159 166 168 165 169 165 160 152 143 135 130 125 121 120 119 117 111 104 98 95 96 95 87 84 81 80 79 78 79 80 83
168 170 172 180 182 180 183 178 168 162 157 156 153 161 161 162 163 162 156 150 144 139 134 130 126 124 123 120 113 103 96 95 96 93 91 85 78 77 75 75 73 70 69
169 167 174 178 182 179 180 174 167 165 161 157 158 159 160 158 160 158 156 150 146 141 136 132 130 129 125 120 112 104 96 94 94 91 92 91 81 75 69 64 62 63 63
171 170 183 179 181 179 177 173 170 172 168 158 158 160 158 158 158 161 156 152 147 142 139 137 135 132 127 121 113 106 96 92 90 96 90 88 91 75 70 63 58 54 51
178 175 183 182 180 179 178 176 174 177 175 162 159 161 163 164 162 162 157 154 151 148 144 142 139 134 127 122 117 108 102 94 95 96 96 97 82 78 67 60 55 50 47
185 180 181 184 183 179 179 179 181 184 180 171 161 157 166 169 166 163 159 159 158 155 152 148 145 139 133 126 121 113 106 103 96 97 98 102 83 78 62 55 51 46 41
192 187 185 184 182 180 179 179 183 184 182 180 175 172 180 177 171 163 163 162 163 163 160 157 153 148 143 139 132 126 118 111 110 107 100 94 75 69 54 45 38 35 31
208 197 188 181 175 177 180 181 182 179 178 185 186 188 184 181 170 167 168 167 167 168 169 168 166 163 160 157 154 144 132 126 121 113 98 97 65 55 38 33 25 25 20
217 208 193 184 176 177 181 180 173 169 171 179 184 188 190 173 168 167 172 170 172 175 179 181 181 178 178 178 176 168 154 150 153 140 123 73 57 55 47 37 33 20 18
272 212 201 186 178 179 182 178 176 172 168 169 170 175 168 169 169 170 174 176 180 184 189 192 194 193 190 193 195 189 167 170 174 179 198 231 52 34 29 31 16 10 17
264 283 210 191 182 181 184 178 179 178 170 171 172 171 172 173 175 176 182 185 191 195 199 202 203 203 203 204 209 207 203 198 196 210 228 264 20 6 3 358 356 347 349
256 286 191 197 185 187 189 186 182 184 182 181 179 180 179 182 183 187 191 197 201 204 207 208 208 213 214 217 215 208 218 217 214 225 243 280 304 320 320 321 321 311 323
251 279 226 199 190 187 189 193 194 188 193 190 188 183 186 192 194 198 201 205 209 213 214 216 215 218 215 216 212 216 228 239 241 245 258 279 292 288 292 298 295 300 297
246 259 255 191 190 186 187 190 197 200 197 197 200 193 192 196 203 205 212 215 220 223 222 219 219 216 218 220 223 227 234 246 244 260 270 278 282 296 287 289 292 282 285
202 215 246 178 182 187 188 189 192 198 202 204 210 207 207 211 214 219 219 223 230 231 226 223 219 219 219 222 227 231 239 243 258 268 279 278 282 295 295 302 288 285 287
214 220 208 185 173 182 192 198 195 195 200 206 210 212 214 221 227 231 231 231 237 230 227 222 218 217 218 221 226 235 234 253 266 272 277 283 284 282 292 289 288 281 271
206 199 167 190 181 190 188 203 196 202 205 202 208 221 226 227 229 225 229 235 238 235 231 226 220 216 217 216 218 227 243 266 272 281 284 287 288 293 285 283 283 275 254
162 185 196 177 203 194 217 217 212 202 210 210 215 224 232 234 232 231 227 232 240 238 233 227 221 221 212 216 224 240 260 265 271 277 282 293 292 298 294 285 278 253 237
193 167 155 169 189 199 190 223 214 222 232 237 233 238 256 254 246 238 233 225 234 241 237 228 222 215 208 220 232 252 261 264 268 274 278 295 293 299 298 287 248 240 237
218 213 206 199 194 196 215 239 225 239 252 240 240 261 265 267 253 244 248 248 234 239 234 226 219 215 217 221 216 232 268 261 274 244 288 293 293 282 290 287 254 237 244
203 218 235 229 218 209 218 233 241 257 263 251 242 265 262 262 253 251 255 267 254 236 234 230 225 220 220 221 216 227 245 248 257 263 290 291 288 267 272 276 257 247 246
205 220 219 210 227 232 237 235 240 249 257 251 256 271 266 264 255 253 263 290 270 249 240 230 226 224 222 218 221 231 243 261 275 288 288 293 278 271 275 266 259 257 257
199 206 219 219 235 241 241 242 236 238 245 244 250 265 269 260 268 254 264 274 263 256 249 241 233 226 217 221 220 238 248 279 272 255 273 268 286 273 267 265 258 258 261
186 199 211 203 209 218 230 242 244 237 250 224 236 234 261 273 285 243 252 257 256 255 257 260 248 218 212 232 246 256 267 274 271 265 264 277 270 274 272 264 255 257 267